Вернуться в каталог

STARLINK-30505

АктивенСвязьVLEO
NORAD 57972·PAYLOAD·🇺🇸 United States

Запущен Sep 30, 2023 с Cape Canaveral Space Force Station

Loading…

Ближайшие Пролёты (ближайшие 24 часа)

TLE

СвежийSource: CelesTrak SupGP

Эпоха: Sep 15, 2026, 02:15 UTC

1 57972C 23151J   26258.09423611  .00030846  00000+0  11172-2 0  2583
2 57972  43.0038 346.6044 0001767 265.6078 331.4198 15.27564741    14

Отслеживайте STARLINK-30505 в реальном времени с AllMySat

Download on the App Store